Time,TemperatureF,DewpointF,PressureIn,WindDirection,WindDirectionDegrees,WindSpeedMPH,WindSpeedGustMPH,Humidity,HourlyPrecipIn,Conditions,Clouds,dailyrainin,SolarRadiationWatts/m^2,SoftwareType,DateUTC
2013-01-10 00:04:00,50.7,24.0,29.44,South,176,3.1,4.5,35,-99.99,,,0.00,0,rob ver 1A,2013-01-10 07:04:00,
2013-01-10 00:09:00,50.8,25.2,29.44,SE,128,2.6,3.2,36,-99.99,,,0.00,0,rob ver 1A,2013-01-10 07:09:00,
2013-01-10 00:14:00,51.1,25.0,29.44,ESE,122,4.8,5.5,36,-99.99,,,0.00,0,rob ver 1A,2013-01-10 07:14:00,
2013-01-10 00:19:00,50.6,25.3,29.44,SE,134,4.7,5.4,37,-99.99,,,0.00,0,rob ver 1A,2013-01-10 07:19:00,
2013-01-10 00:24:00,50.8,25.4,29.44,ESE,120,3.7,4.0,36,-99.99,,,0.00,0,rob ver 1A,2013-01-10 07:24:00,
2013-01-10 00:30:00,51.3,25.1,29.44,ESE,103,4.0,4.1,35,-99.99,,,0.00,0,rob ver 1A,2013-01-10 07:30:00,
2013-01-10 00:35:00,50.9,25.1,29.44,East,79,4.5,5.1,36,-99.99,,,0.00,0,rob ver 1A,2013-01-10 07:35:00,
2013-01-10 00:40:00,50.3,25.2,29.44,ENE,69,5.3,6.0,37,-99.99,,,0.00,0,rob ver 1A,2013-01-10 07:40:00,
2013-01-10 00:45:00,50.3,25.2,29.44,ENE,60,4.9,6.1,37,-99.99,,,0.00,0,rob ver 1B,2013-01-10 07:45:00,
2013-01-10 00:50:00,50.3,25.2,29.44,NE,53,5.4,6.3,37,-99.99,,,0.00,0,rob ver 1A,2013-01-10 07:50:00,
2013-01-10 00:55:00,49.9,25.3,29.44,NE,45,6.2,7.1,37,-99.99,,,0.00,0,rob ver 1A,2013-01-10 07:55:00,
2013-01-10 01:00:00,49.9,25.2,29.41,NE,44,6.0,6.7,37,-99.99,,,0.00,0,rob ver 1A,2013-01-10 08:00:00,
2013-01-10 01:05:00,50.3,25.4,29.41,NE,43,5.9,6.9,37,-99.99,,,0.00,0,rob ver 1A,2013-01-10 08:05:00,
2013-01-10 01:10:00,50.6,25.4,29.41,NE,48,5.6,6.6,36,-99.99,,,0.00,0,rob ver 1A,2013-01-10 08:10:00,
2013-01-10 01:15:00,50.9,25.5,29.41,NE,47,6.0,6.9,36,-99.99,,,0.00,0,rob ver 1A,2013-01-10 08:15:00,
2013-01-10 01:20:00,51.1,25.4,29.41,NE,41,4.9,6.2,36,-99.99,,,0.00,0,rob ver 1A,2013-01-10 08:20:00,
2013-01-10 01:25:00,51.4,25.2,29.41,NE,34,4.8,5.6,35,-99.99,,,0.00,0,rob ver 1A,2013-01-10 08:25:00,
2013-01-10 01:30:00,51.8,25.1,29.41,NE,38,5.8,6.8,35,-99.99,,,0.00,0,rob ver 1B,2013-01-10 08:30:00,
2013-01-10 01:35:00,51.9,25.1,29.41,NE,36,6.4,7.8,34,-99.99,,,0.00,0,rob ver 1A,2013-01-10 08:35:00,
2013-01-10 01:40:00,52.2,25.0,29.41,NE,36,8.2,9.5,34,-99.99,,,0.00,0,rob ver 1A,2013-01-10 08:40:00,
2013-01-10 01:45:00,52.5,24.6,29.41,ENE,58,6.3,8.1,33,-99.99,,,0.00,0,rob ver 1A,2013-01-10 08:45:00,
2013-01-10 01:50:00,51.9,24.4,29.41,East,83,5.8,7.6,33,-99.99,,,0.00,0,rob ver 1A,2013-01-10 08:50:00,
2013-01-10 01:55:00,51.5,24.3,29.41,ESE,105,4.5,4.9,34,-99.99,,,0.00,0,rob ver 1A,2013-01-10 08:55:00,
2013-01-10 02:00:00,51.0,24.3,29.41,East,90,4.2,4.7,34,-99.99,,,0.00,0,rob ver 1A,2013-01-10 09:00:00,
2013-01-10 02:05:00,50.5,24.4,29.41,East,89,4.7,5.3,35,-99.99,,,0.00,0,rob ver 1A,2013-01-10 09:05:00,
2013-01-10 02:10:00,50.7,24.2,29.41,ENE,74,4.8,5.5,35,-99.99,,,0.00,0,rob ver 1A,2013-01-10 09:10:00,
2013-01-10 02:15:00,50.3,24.3,29.41,SE,126,2.9,3.2,36,-99.99,,,0.00,0,rob ver 1A,2013-01-10 09:15:00,
2013-01-10 02:20:00,49.3,24.9,29.41,SE,143,3.4,3.6,38,-99.99,,,0.00,0,rob ver 1A,2013-01-10 09:20:00,
2013-01-10 02:25:00,48.8,25.1,29.41,SE,126,3.6,4.1,39,-99.99,,,0.00,0,rob ver 1A,2013-01-10 09:25:00,
2013-01-10 02:30:00,49.0,25.0,29.41,ESE,107,3.4,4.1,38,-99.99,,,0.00,0,rob ver 1A,2013-01-10 09:30:00,
2013-01-10 02:35:00,48.5,25.0,29.41,East,97,3.4,3.7,39,-99.99,,,0.00,0,rob ver 1A,2013-01-10 09:35:00,
2013-01-10 02:40:00,48.3,25.1,29.41,ESE,123,3.0,3.2,39,-99.99,,,0.00,0,rob ver 1A,2013-01-10 09:40:00,
2013-01-10 02:45:00,48.6,25.1,29.41,East,98,3.6,3.9,39,-99.99,,,0.00,0,rob ver 1A,2013-01-10 09:45:00,
2013-01-10 02:50:00,48.6,25.0,29.38,East,92,3.8,4.5,39,-99.99,,,0.00,0,rob ver 1A,2013-01-10 09:50:00,
2013-01-10 02:56:00,48.6,24.9,29.38,ESE,114,3.7,4.1,39,-99.99,,,0.00,0,rob ver 1A,2013-01-10 09:56:00,
2013-01-10 03:01:00,49.1,24.8,29.41,ESE,111,3.7,4.4,38,-99.99,,,0.00,0,rob ver 1A,2013-01-10 10:01:00,
2013-01-10 03:06:00,49.5,24.6,29.38,SE,134,2.9,3.3,37,-99.99,,,0.00,0,rob ver 1A,2013-01-10 10:06:00,
2013-01-10 03:11:00,49.0,24.6,29.41,South,172,3.7,4.1,38,-99.99,,,0.00,0,rob ver 1A,2013-01-10 10:11:00,
2013-01-10 03:16:00,49.5,24.4,29.41,SSE,159,4.0,4.5,37,-99.99,,,0.00,0,rob ver 1A,2013-01-10 10:16:00,
2013-01-10 03:21:00,50.0,24.3,29.41,SSE,147,4.5,5.1,36,-99.99,,,0.00,0,rob ver 1A,2013-01-10 10:21:00,
2013-01-10 03:26:00,49.4,24.2,29.41,SSE,165,4.7,5.2,36,-99.99,,,0.00,0,rob ver 1A,2013-01-10 10:26:00,
2013-01-10 03:31:00,49.2,24.0,29.41,South,184,4.1,4.8,36,-99.99,,,0.00,0,rob ver 1A,2013-01-10 10:31:00,
2013-01-10 03:36:00,49.3,23.9,29.41,SSW,207,2.3,2.5,36,-99.99,,,0.00,0,rob ver 1A,2013-01-10 10:36:00,
2013-01-10 03:41:00,49.2,23.9,29.41,SW,233,0.7,0.9,36,-99.99,,,0.00,0,rob ver 1A,2013-01-10 10:41:00,
2013-01-10 03:46:00,49.0,24.1,29.41,NNW,346,2.4,3.0,37,-99.99,,,0.00,0,rob ver 1A,2013-01-10 10:46:00,
2013-01-10 03:51:00,49.1,24.0,29.41,North,8,2.4,2.7,37,-99.99,,,0.00,0,rob ver 1A,2013-01-10 10:51:00,
2013-01-10 03:56:00,49.1,24.3,29.41,NNW,348,3.4,4.1,37,-99.99,,,0.00,0,rob ver 1B,2013-01-10 10:56:00,
2013-01-10 04:01:00,48.5,24.3,29.41,North,9,2.7,2.9,38,-99.99,,,0.00,0,rob ver 1A,2013-01-10 11:01:00,
2013-01-10 04:06:00,49.0,24.3,29.41,North,5,2.6,2.6,37,-99.99,,,0.00,0,rob ver 1A,2013-01-10 11:06:00,
2013-01-10 04:11:00,48.7,24.4,29.41,NNW,332,2.5,2.7,38,-99.99,,,0.00,0,rob ver 1A,2013-01-10 11:11:00,
2013-01-10 04:16:00,48.5,24.5,29.41,North,4,3.4,3.7,38,-99.99,,,0.00,0,rob ver 1A,2013-01-10 11:16:00,
2013-01-10 04:21:00,49.0,24.4,29.41,North,10,4.3,4.5,37,-99.99,,,0.00,0,rob ver 1A,2013-01-10 11:21:00,
2013-01-10 04:26:00,49.1,24.3,29.38,North,356,4.8,5.1,37,-99.99,,,0.00,0,rob ver 1A,2013-01-10 11:26:00,
2013-01-10 04:31:00,48.7,24.4,29.38,North,9,3.9,4.3,38,-99.99,,,0.00,0,rob ver 1A,2013-01-10 11:31:00,
2013-01-10 04:36:00,49.0,24.3,29.38,North,5,4.5,4.8,37,-99.99,,,0.00,0,rob ver 1A,2013-01-10 11:36:00,
2013-01-10 04:42:00,49.0,24.2,29.38,North,5,3.5,3.8,37,-99.99,,,0.00,0,rob ver 1A,2013-01-10 11:42:00,
2013-01-10 04:47:00,49.1,24.2,29.38,NNE,25,2.3,3.0,37,-99.99,,,0.00,0,rob ver 1A,2013-01-10 11:47:00,
2013-01-10 04:52:00,49.2,24.1,29.38,NNE,17,2.4,2.6,37,-99.99,,,0.00,0,rob ver 1B,2013-01-10 11:52:00,
2013-01-10 04:57:00,49.5,24.1,29.38,North,357,1.8,1.9,36,-99.99,,,0.00,0,rob ver 1A,2013-01-10 11:57:00,
2013-01-10 05:02:00,49.7,24.0,29.38,North,11,2.1,2.3,36,-99.99,,,0.00,0,rob ver 1A,2013-01-10 12:02:00,
2013-01-10 05:07:00,50.1,23.5,29.38,NE,53,1.2,1.4,34,-99.99,,,0.00,0,rob ver 1A,2013-01-10 12:07:00,
2013-01-10 05:12:00,50.4,23.5,29.38,East,96,0.9,1.0,34,-99.99,,,0.00,0,rob ver 1A,2013-01-10 12:12:00,
2013-01-10 05:17:00,49.7,24.2,29.38,ENE,66,1.6,2.0,36,-99.99,,,0.00,0,rob ver 1A,2013-01-10 12:17:00,
2013-01-10 05:22:00,50.2,23.5,29.38,East,91,1.9,2.3,34,-99.99,,,0.00,0,rob ver 1A,2013-01-10 12:22:00,
2013-01-10 05:27:00,50.1,23.8,29.38,ENE,72,4.0,4.9,35,-99.99,,,0.00,0,rob ver 1A,2013-01-10 12:27:00,
2013-01-10 05:32:00,49.8,24.0,29.38,SE,127,3.2,3.8,36,-99.99,,,0.00,0,rob ver 1A,2013-01-10 12:32:00,
2013-01-10 05:37:00,49.2,24.4,29.38,East,101,2.8,3.0,37,-99.99,,,0.00,0,rob ver 1A,2013-01-10 12:37:00,
2013-01-10 05:42:00,49.0,24.4,29.38,East,89,3.8,4.6,37,-99.99,,,0.00,0,rob ver 1A,2013-01-10 12:42:00,
2013-01-10 05:47:00,49.3,24.4,29.38,East,89,4.2,5.0,37,-99.99,,,0.00,0,rob ver 1A,2013-01-10 12:47:00,
2013-01-10 05:52:00,49.1,24.5,29.38,ESE,112,4.4,5.2,37,-99.99,,,0.00,0,rob ver 1A,2013-01-10 12:52:00,
2013-01-10 05:57:00,49.1,24.7,29.38,East,96,6.4,7.4,38,-99.99,,,0.00,0,rob ver 1A,2013-01-10 12:57:00,
2013-01-10 06:02:00,49.0,24.9,29.38,ENE,75,6.0,7.2,38,-99.99,,,0.00,0,rob ver 1A,2013-01-10 13:02:00,
2013-01-10 06:07:00,49.4,25.1,29.38,ENE,62,6.3,7.9,38,-99.99,,,0.00,0,rob ver 1A,2013-01-10 13:07:00,
2013-01-10 06:12:00,49.7,25.0,29.38,ENE,73,4.8,6.0,37,-99.99,,,0.00,0,rob ver 1A,2013-01-10 13:12:00,
2013-01-10 06:17:00,50.1,24.7,29.35,NE,55,5.9,7.2,36,-99.99,,,0.00,0,rob ver 1A,2013-01-10 13:17:00,
2013-01-10 06:22:00,50.9,24.2,29.38,East,83,4.5,5.9,34,-99.99,,,0.00,0,rob ver 1A,2013-01-10 13:22:00,
2013-01-10 06:27:00,50.5,24.3,29.38,ESE,118,3.1,3.7,35,-99.99,,,0.00,0,rob ver 1A,2013-01-10 13:27:00,
2013-01-10 06:32:00,50.5,24.4,29.38,ESE,107,3.4,4.4,35,-99.99,,,0.00,0,rob ver 1A,2013-01-10 13:32:00,
2013-01-10 06:37:00,50.3,24.7,29.38,ESE,106,4.4,4.9,36,-99.99,,,0.00,0,rob ver 1A,2013-01-10 13:37:00,
2013-01-10 06:42:00,49.4,24.8,29.38,ESE,112,4.5,4.9,38,-99.99,,,0.00,0,rob ver 1A,2013-01-10 13:42:00,
2013-01-10 06:47:00,49.5,25.1,29.38,East,99,4.6,5.3,38,-99.99,,,0.00,0,rob ver 1A,2013-01-10 13:47:00,
2013-01-10 06:52:00,50.0,25.2,29.38,East,99,4.9,5.5,37,-99.99,,,0.00,0,rob ver 1B,2013-01-10 13:52:00,
2013-01-10 06:58:00,49.8,25.2,29.38,East,92,6.8,7.5,37,-99.99,,,0.00,0,rob ver 1B,2013-01-10 13:58:00,
2013-01-10 07:03:00,50.2,25.1,29.38,East,89,8.1,10.0,37,-99.99,,,0.00,0,rob ver 1A,2013-01-10 14:03:00,
2013-01-10 07:08:00,50.9,24.6,29.38,ESE,102,7.1,8.3,35,-99.99,,,0.00,0,rob ver 1B,2013-01-10 14:08:00,
2013-01-10 07:13:00,50.1,24.6,29.38,ESE,113,4.9,6.2,36,-99.99,,,0.00,0,rob ver 1A,2013-01-10 14:13:00,
2013-01-10 07:18:00,49.2,24.7,29.35,East,92,4.5,5.5,38,-99.99,,,0.00,0,rob ver 1A,2013-01-10 14:18:00,
2013-01-10 07:23:00,48.9,24.9,29.35,ESE,103,5.2,6.2,38,-99.99,,,0.00,0,rob ver 1A,2013-01-10 14:23:00,
2013-01-10 07:28:00,48.6,25.0,29.35,SE,126,4.7,5.4,39,-99.99,,,0.00,.329,rob ver 1A,2013-01-10 14:28:00,
2013-01-10 07:33:00,48.8,25.4,29.35,ESE,108,4.8,6.1,39,-99.99,,,0.00,1.972,rob ver 1A,2013-01-10 14:33:00,
2013-01-10 07:38:00,50.3,25.9,29.35,ESE,102,4.3,5.7,38,-99.99,,,0.00,3.287,rob ver 1A,2013-01-10 14:38:00,
2013-01-10 07:43:00,50.6,26.2,29.35,ESE,102,6.6,8.7,38,-99.99,,,0.00,1.643,rob ver 1A,2013-01-10 14:43:00,
2013-01-10 07:48:00,50.7,26.1,29.35,ESE,105,5.5,6.6,38,-99.99,,,0.00,2.794,rob ver 1A,2013-01-10 14:48:00,
2013-01-10 07:53:00,50.6,26.1,29.35,East,99,7.5,9.0,38,-99.99,,,0.00,5.752,rob ver 1A,2013-01-10 14:53:00,
2013-01-10 07:58:00,51.1,25.9,29.35,ENE,69,7.9,10.6,37,-99.99,,,0.00,11.83,rob ver 1A,2013-01-10 14:58:00,
2013-01-10 08:03:00,51.2,25.8,29.35,ENE,63,8.6,11.5,36,-99.99,,,0.00,14.46,rob ver 1A,2013-01-10 15:03:00,
2013-01-10 08:08:00,51.5,25.5,29.35,ENE,76,12.0,16.0,36,-99.99,,,0.00,17.09,rob ver 1A,2013-01-10 15:08:00,
2013-01-10 08:13:00,51.6,25.2,29.35,ENE,70,12.9,18.6,35,-99.99,,,0.00,24.65,rob ver 1B,2013-01-10 15:13:00,
2013-01-10 08:19:00,51.8,24.8,29.35,ENE,68,13.7,18.5,34,-99.99,,,0.00,41.41,rob ver 1A,2013-01-10 15:19:00,
2013-01-10 08:24:00,51.9,24.7,29.35,ENE,73,14.4,18.4,34,-99.99,,,0.00,55.87,rob ver 1A,2013-01-10 15:24:00,
2013-01-10 08:29:00,51.9,24.7,29.35,ENE,71,13.0,16.6,34,-99.99,,,0.00,33.2,rob ver 1A,2013-01-10 15:29:00,
2013-01-10 08:34:00,51.8,24.8,29.35,ENE,69,11.1,15.4,34,-99.99,,,0.00,23.34,rob ver 1A,2013-01-10 15:34:00,
2013-01-10 08:39:00,51.9,24.6,29.35,ENE,65,11.1,16.2,34,-99.99,,,0.00,24.32,rob ver 1A,2013-01-10 15:39:00,
2013-01-10 08:44:00,52.1,24.4,29.35,ENE,65,10.3,12.9,33,-99.99,,,0.00,27.61,rob ver 1A,2013-01-10 15:44:00,
2013-01-10 08:49:00,52.4,24.1,29.35,ENE,71,12.1,15.5,32,-99.99,,,0.00,34.84,rob ver 1A,2013-01-10 15:49:00,
2013-01-10 08:54:00,52.6,24.0,29.35,ENE,65,8.6,12.4,32,-99.99,,,0.00,49.96,rob ver 1A,2013-01-10 15:54:00,
2013-01-10 08:59:00,52.8,23.9,29.35,ENE,73,6.9,10.7,32,-99.99,,,0.00,60.47,rob ver 1B,2013-01-10 15:59:00,
2013-01-10 09:04:00,53.0,23.8,29.35,ENE,74,8.1,11.9,31,-99.99,,,0.00,65.07,rob ver 1A,2013-01-10 16:04:00,
2013-01-10 09:09:00,53.0,23.8,29.38,ESE,103,7.0,8.7,31,-99.99,,,0.00,71.3,rob ver 1A,2013-01-10 16:09:00,
2013-01-10 09:14:00,53.0,23.9,29.38,ESE,109,6.5,7.9,31,-99.99,,,0.00,83.5,rob ver 1A,2013-01-10 16:14:00,
2013-01-10 09:19:00,52.9,23.9,29.35,ESE,109,8.8,11.6,31,-99.99,,,0.00,86.8,rob ver 1A,2013-01-10 16:19:00,
2013-01-10 09:24:00,53.1,24.0,29.35,East,92,6.1,8.8,31,-99.99,,,0.00,97.6,rob ver 1A,2013-01-10 16:24:00,
2013-01-10 09:29:00,52.2,24.5,29.38,SSW,198,4.7,5.9,33,-99.99,,,0.00,96.3,rob ver 1A,2013-01-10 16:29:00,
2013-01-10 09:34:00,52.2,24.3,29.38,WSW,252,7.0,8.2,33,-99.99,,,0.00,105.8,rob ver 1A,2013-01-10 16:34:00,
2013-01-10 09:39:00,52.4,25.0,29.38,WSW,247,7.5,8.5,34,-99.99,,,0.00,119,rob ver 1A,2013-01-10 16:39:00,
2013-01-10 09:44:00,50.8,26.0,29.38,WSW,246,6.7,8.0,37,-99.99,,,0.00,131.8,rob ver 1A,2013-01-10 16:44:00,
2013-01-10 09:49:00,50.7,26.0,29.38,WSW,252,5.4,6.6,38,-99.99,,,0.00,171.2,rob ver 1A,2013-01-10 16:49:00,
2013-01-10 09:54:00,51.3,25.8,29.38,WSW,247,3.6,4.2,36,-99.99,,,0.00,218.9,rob ver 1A,2013-01-10 16:54:00,
2013-01-10 09:59:00,52.0,25.1,29.38,West,266,4.4,5.7,34,-99.99,,,0.00,267,rob ver 1B,2013-01-10 16:59:00,
2013-01-10 10:05:00,52.5,25.4,29.41,WSW,256,6.1,7.0,34,-99.99,,,0.00,243.2,rob ver 1A,2013-01-10 17:05:00,
2013-01-10 10:10:00,52.5,25.4,29.41,West,265,6.2,7.3,34,-99.99,,,0.00,207.7,rob ver 1A,2013-01-10 17:10:00,
2013-01-10 10:15:00,53.3,25.3,29.41,WNW,283,6.4,7.9,33,-99.99,,,0.00,244.5,rob ver 1A,2013-01-10 17:15:00,
2013-01-10 10:20:00,53.8,25.0,29.41,West,277,5.9,7.1,32,-99.99,,,0.00,281.3,rob ver 1A,2013-01-10 17:20:00,
2013-01-10 10:25:00,54.5,25.1,29.41,WNW,291,5.4,6.8,32,-99.99,,,0.00,265.8,rob ver 1A,2013-01-10 17:25:00,
2013-01-10 10:30:00,54.6,25.2,29.41,WNW,294,4.3,5.1,31,-99.99,,,0.00,249.7,rob ver 1A,2013-01-10 17:30:00,
2013-01-10 10:35:00,55.1,25.4,29.41,WNW,303,3.4,3.9,31,-99.99,,,0.00,253.3,rob ver 1A,2013-01-10 17:35:00,
2013-01-10 10:40:00,55.6,25.6,29.41,NW,323,4.8,5.7,31,-99.99,,,0.00,373.9,rob ver 1A,2013-01-10 17:40:00,
2013-01-10 10:45:00,55.7,25.4,29.41,North,352,4.5,5.8,30,-99.99,,,0.00,288.5,rob ver 1A,2013-01-10 17:45:00,
2013-01-10 10:50:00,56.0,25.3,29.41,NNW,337,4.0,5.0,30,-99.99,,,0.00,194.5,rob ver 1A,2013-01-10 17:50:00,
2013-01-10 10:55:00,56.0,25.3,29.38,NNW,342,3.8,4.8,30,-99.99,,,0.00,172.2,rob ver 1A,2013-01-10 17:55:00,
2013-01-10 11:00:00,56.2,25.4,29.38,NNW,329,3.3,4.1,30,-99.99,,,0.00,178.1,rob ver 1A,2013-01-10 18:00:00,
2013-01-10 11:05:00,56.8,25.2,29.41,North,354,1.9,2.8,29,-99.99,,,0.00,170.2,rob ver 1A,2013-01-10 18:05:00,
2013-01-10 11:10:00,57.2,25.4,29.38,NNE,24,1.2,1.7,29,-99.99,,,0.00,157,rob ver 1A,2013-01-10 18:10:00,
2013-01-10 11:15:00,57.6,25.4,29.41,ENE,63,0.9,1.4,28,-99.99,,,0.00,169.5,rob ver 1A,2013-01-10 18:15:00,
2013-01-10 11:20:00,57.4,24.9,29.41,SSE,148,1.7,2.3,28,-99.99,,,0.00,199.7,rob ver 1A,2013-01-10 18:20:00,
2013-01-10 11:25:00,57.1,25.2,29.41,SSE,152,3.8,5.8,29,-99.99,,,0.00,180.7,rob ver 1A,2013-01-10 18:25:00,
2013-01-10 11:30:00,57.3,25.4,29.38,SSE,152,2.4,3.5,29,-99.99,,,0.00,180,rob ver 1A,2013-01-10 18:30:00,
2013-01-10 11:35:00,57.5,25.2,29.38,ESE,123,4.4,6.4,28,-99.99,,,0.00,155.7,rob ver 1A,2013-01-10 18:35:00,
2013-01-10 11:40:00,57.6,25.2,29.38,SE,134,4.2,4.9,28,-99.99,,,0.00,182,rob ver 1A,2013-01-10 18:40:00,
2013-01-10 11:46:00,58.2,25.5,29.38,SSE,157,4.9,5.6,28,-99.99,,,0.00,176.7,rob ver 1A,2013-01-10 18:46:00,
2013-01-10 11:51:00,58.9,27.9,29.38,SSE,158,6.9,8.8,30,-99.99,,,0.00,168.2,rob ver 1A,2013-01-10 18:51:00,
2013-01-10 11:56:00,59.2,29.7,29.35,SSE,160,9.4,11.3,32,-99.99,,,0.00,136.6,rob ver 1A,2013-01-10 18:56:00,
2013-01-10 12:01:00,59.3,30.2,29.35,SSE,154,9.3,11.3,33,-99.99,,,0.00,143.2,rob ver 1A,2013-01-10 19:01:00,
2013-01-10 12:06:00,59.6,30.6,29.35,SSE,147,8.3,10.1,33,-99.99,,,0.00,157.7,rob ver 1A,2013-01-10 19:06:00,
2013-01-10 12:11:00,59.7,30.9,29.35,SSE,164,7.6,9.3,33,-99.99,,,0.00,168.8,rob ver 1A,2013-01-10 19:11:00,
2013-01-10 12:16:00,60.0,32.4,29.35,South,171,9.5,10.7,35,-99.99,,,0.00,209.4,rob ver 1A,2013-01-10 19:16:00,
2013-01-10 12:21:00,60.5,33.1,29.35,SSE,164,8.1,9.9,35,-99.99,,,0.00,245,rob ver 1A,2013-01-10 19:21:00,
2013-01-10 12:26:00,60.7,33.7,29.35,South,170,6.9,9.6,37,-99.99,,,0.00,218.6,rob ver 1A,2013-01-10 19:26:00,
2013-01-10 12:31:00,60.7,34.7,29.32,South,171,7.3,9.1,37,-99.99,,,0.00,181.3,rob ver 1B,2013-01-10 19:31:00,
2013-01-10 12:37:00,61.0,35.5,29.32,South,181,8.8,11.5,39,-99.99,,,0.00,206.9,rob ver 1A,2013-01-10 19:37:00,
2013-01-10 12:42:00,61.1,35.6,29.32,SSW,200,6.7,8.6,38,-99.99,,,0.00,199.7,rob ver 1A,2013-01-10 19:42:00,
2013-01-10 12:47:00,61.2,35.9,29.32,SSW,205,6.7,8.5,38,-99.99,,,0.00,267.3,rob ver 1A,2013-01-10 19:47:00,
2013-01-10 12:52:00,61.5,36.5,29.32,SSW,196,7.7,9.3,39,-99.99,,,0.00,298.8,rob ver 1A,2013-01-10 19:52:00,
2013-01-10 12:57:00,61.5,36.2,29.32,SSW,201,7.1,9.1,38,-99.99,,,0.00,250.2,rob ver 1A,2013-01-10 19:57:00,
2013-01-10 13:02:00,61.5,36.5,29.32,SSW,193,6.3,8.2,39,-99.99,,,0.00,261.4,rob ver 1A,2013-01-10 20:02:00,
2013-01-10 13:07:00,62.0,36.5,29.32,SSW,197,4.7,6.0,38,-99.99,,,0.00,529.2,rob ver 1A,2013-01-10 20:07:00,
2013-01-10 13:12:00,62.3,36.9,29.32,SW,217,6.7,8.3,38,-99.99,,,0.00,360.6,rob ver 1B,2013-01-10 20:12:00,
2013-01-10 13:18:00,62.7,37.2,29.32,SW,218,8.0,10.3,38,-99.99,,,0.00,324.3,rob ver 1B,2013-01-10 20:18:00,
2013-01-10 13:23:00,62.6,37.4,29.32,SW,221,6.7,8.7,39,-99.99,,,0.00,424.3,rob ver 1A,2013-01-10 20:23:00,
2013-01-10 13:28:00,62.9,37.3,29.32,SSW,201,3.9,5.2,38,-99.99,,,0.00,333.6,rob ver 1A,2013-01-10 20:28:00,
2013-01-10 13:33:00,63.2,37.8,29.32,SSW,210,10.5,12.4,38,-99.99,,,0.00,674,rob ver 1A,2013-01-10 20:33:00,
2013-01-10 13:38:00,63.4,37.8,29.32,SW,221,8.5,10.6,38,-99.99,,,0.00,584.5,rob ver 1A,2013-01-10 20:38:00,
2013-01-10 13:43:00,64.0,37.9,29.32,SW,219,10.3,13.0,37,-99.99,,,0.00,665.9,rob ver 1A,2013-01-10 20:43:00,
2013-01-10 13:48:00,63.9,37.5,29.32,SW,225,10.5,13.8,37,-99.99,,,0.00,684.3,rob ver 1A,2013-01-10 20:48:00,
2013-01-10 13:53:00,64.1,37.7,29.32,SW,233,12.7,15.9,38,-99.99,,,0.00,502.3,rob ver 1A,2013-01-10 20:53:00,
2013-01-10 13:58:00,63.6,37.8,29.32,SSW,209,12.7,16.0,38,-99.99,,,0.00,543.7,rob ver 1A,2013-01-10 20:58:00,
2013-01-10 14:04:00,64.1,38.3,29.32,SW,229,9.0,11.7,38,-99.99,,,0.00,213.4,rob ver 1A,2013-01-10 21:04:00,
2013-01-10 14:09:00,63.2,38.2,29.32,SW,221,11.5,13.9,39,-99.99,,,0.00,203.2,rob ver 1A,2013-01-10 21:09:00,
2013-01-10 14:14:00,62.9,38.6,29.32,SW,229,10.0,12.9,40,-99.99,,,0.00,223.9,rob ver 1A,2013-01-10 21:14:00,
2013-01-10 14:19:00,62.8,38.6,29.32,SW,231,13.0,16.2,40,-99.99,,,0.00,223.2,rob ver 1A,2013-01-10 21:19:00,
2013-01-10 14:24:00,62.8,38.7,29.32,SW,226,12.7,15.1,41,-99.99,,,0.00,239,rob ver 1A,2013-01-10 21:24:00,
2013-01-10 14:30:00,63.0,39.3,29.32,SW,232,13.6,16.8,41,-99.99,,,0.00,253.1,rob ver 1B,2013-01-10 21:30:00,
2013-01-10 14:35:00,63.1,39.6,29.32,SW,228,12.8,16.3,41,-99.99,,,0.00,265.9,rob ver 1A,2013-01-10 21:35:00,
2013-01-10 14:40:00,62.9,40.1,29.32,SW,235,13.8,16.9,43,-99.99,,,0.00,332.2,rob ver 1A,2013-01-10 21:40:00,
2013-01-10 14:45:00,62.7,40.5,29.32,SW,233,15.0,17.5,44,-99.99,,,0.00,166.8,rob ver 1A,2013-01-10 21:45:00,
2013-01-10 14:50:00,62.3,41.3,29.32,SW,235,16.1,18.3,46,-99.99,,,0.00,200.9,rob ver 1A,2013-01-10 21:50:00,
2013-01-10 14:55:00,62.8,41.5,29.32,SW,223,12.8,16.7,45,-99.99,,,0.00,295.4,rob ver 1A,2013-01-10 21:55:00,
2013-01-10 15:01:00,62.9,40.8,29.32,SW,230,16.8,21.6,43,-99.99,,,0.00,332.5,rob ver 1A,2013-01-10 22:01:00,
2013-01-10 15:06:00,62.5,40.5,29.32,SW,232,12.3,15.3,44,-99.99,,,0.00,261.3,rob ver 1A,2013-01-10 22:06:00,
2013-01-10 15:11:00,62.9,40.4,29.29,SW,233,11.7,14.2,43,-99.99,,,0.00,284.1,rob ver 1A,2013-01-10 22:11:00,
2013-01-10 15:16:00,62.4,39.6,29.32,SW,233,13.8,16.2,42,-99.99,,,0.00,213.4,rob ver 1A,2013-01-10 22:16:00,
2013-01-10 15:21:00,62.5,38.7,29.32,WSW,238,14.7,19.6,41,-99.99,,,0.00,234.6,rob ver 1A,2013-01-10 22:21:00,
2013-01-10 15:26:00,62.4,38.3,29.32,SW,232,14.4,16.6,40,-99.99,,,0.00,294.1,rob ver 1A,2013-01-10 22:26:00,
2013-01-10 15:31:00,62.4,38.3,29.32,SW,236,15.5,19.5,40,-99.99,,,0.00,255.4,rob ver 1A,2013-01-10 22:31:00,
2013-01-10 15:36:00,62.6,38.3,29.32,WSW,237,16.2,20.1,40,-99.99,,,0.00,322.4,rob ver 1A,2013-01-10 22:36:00,
2013-01-10 15:41:00,62.8,37.3,29.32,SW,231,17.3,19.9,38,-99.99,,,0.00,369.6,rob ver 1B,2013-01-10 22:41:00,
2013-01-10 15:46:00,62.6,36.4,29.32,SW,234,16.8,20.0,37,-99.99,,,0.00,308.3,rob ver 1A,2013-01-10 22:46:00,
2013-01-10 15:51:00,62.9,35.7,29.32,WSW,238,16.1,19.9,35,-99.99,,,0.00,320.4,rob ver 1B,2013-01-10 22:51:00,
2013-01-10 15:56:00,62.9,34.9,29.32,SW,232,18.7,23.1,35,-99.99,,,0.00,313.8,rob ver 1A,2013-01-10 22:56:00,
2013-01-10 16:01:00,62.1,35.1,29.32,SW,222,19.1,22.6,36,-99.99,,,0.00,243.3,rob ver 1A,2013-01-10 23:01:00,
2013-01-10 16:06:00,61.8,34.1,29.32,WSW,247,17.4,22.0,35,-99.99,,,0.00,139.7,rob ver 1A,2013-01-10 23:06:00,
2013-01-10 16:11:00,61.1,33.0,29.32,WSW,242,20.6,23.8,34,-99.99,,,0.00,206.3,rob ver 1A,2013-01-10 23:11:00,
2013-01-10 16:16:00,60.7,31.4,29.32,SW,233,19.4,26.7,32,-99.99,,,0.00,239,rob ver 1A,2013-01-10 23:16:00,
2013-01-10 16:21:00,60.9,30.3,29.32,SW,225,19.6,22.9,31,-99.99,,,0.00,213.4,rob ver 1A,2013-01-10 23:21:00,
2013-01-10 16:26:00,60.5,27.5,29.32,WSW,243,16.6,19.8,28,-99.99,,,0.00,65,rob ver 1A,2013-01-10 23:26:00,
2013-01-10 16:31:00,59.9,25.8,29.32,SW,231,20.7,25.4,27,-99.99,,,0.00,42.68,rob ver 1A,2013-01-10 23:31:00,
2013-01-10 16:37:00,59.4,24.2,29.32,WSW,250,22.9,28.7,25,-99.99,,,0.00,45.63,rob ver 1A,2013-01-10 23:37:00,
2013-01-10 16:42:00,58.8,23.2,29.32,WSW,243,22.5,28.0,25,-99.99,,,0.00,49.24,rob ver 1A,2013-01-10 23:42:00,
2013-01-10 16:47:00,58.5,24.4,29.32,WSW,241,21.6,25.8,26,-99.99,,,0.00,69.6,rob ver 1A,2013-01-10 23:47:00,
2013-01-10 16:52:00,58.2,25.3,29.32,SW,226,21.4,28.5,28,-99.99,,,0.00,71.6,rob ver 1A,2013-01-10 23:52:00,
2013-01-10 16:57:00,58.0,25.2,29.32,SW,229,24.4,30.8,28,-99.99,,,0.00,58.44,rob ver 1A,2013-01-10 23:57:00,
2013-01-10 17:02:00,58.0,26.1,29.35,WSW,242,12.4,15.6,29,-99.99,,,0.00,55.16,rob ver 1A,2013-01-11 00:02:00,
2013-01-10 17:07:00,57.8,25.3,29.32,WSW,239,21.7,25.1,28,-99.99,,,0.00,55.16,rob ver 1A,2013-01-11 00:07:00,
2013-01-10 17:12:00,57.5,25.2,29.35,WSW,240,12.2,16.0,28,-99.99,,,0.00,34.8,rob ver 1A,2013-01-11 00:12:00,
2013-01-10 17:17:00,57.2,24.9,29.35,WSW,252,16.9,21.7,28,-99.99,,,0.00,32.18,rob ver 1A,2013-01-11 00:17:00,
2013-01-10 17:23:00,57.0,22.8,29.32,SW,232,18.5,24.2,26,-99.99,,,0.00,28.9,rob ver 1A,2013-01-11 00:23:00,
2013-01-10 17:28:00,56.8,24.0,29.32,WSW,244,17.5,22.8,28,-99.99,,,0.00,17.07,rob ver 1A,2013-01-11 00:28:00,
2013-01-10 17:33:00,56.6,24.0,29.35,WSW,238,17.5,23.1,28,-99.99,,,0.00,10.51,rob ver 1A,2013-01-11 00:33:00,
2013-01-10 17:38:00,56.6,24.1,29.35,WSW,255,16.6,23.1,28,-99.99,,,0.00,9.85,rob ver 1A,2013-01-11 00:38:00,
2013-01-10 17:43:00,56.3,24.1,29.35,WSW,255,19.6,25.5,28,-99.99,,,0.00,8.54,rob ver 1A,2013-01-11 00:43:00,
2013-01-10 17:48:00,56.0,23.9,29.32,WSW,249,24.1,28.5,28,-99.99,,,0.00,5.254,rob ver 1A,2013-01-11 00:48:00,
2013-01-10 17:53:00,55.9,23.9,29.35,WSW,247,17.3,22.4,28,-99.99,,,0.00,2.299,rob ver 1A,2013-01-11 00:53:00,
2013-01-10 17:58:00,55.7,23.6,29.35,WSW,239,16.7,22.5,28,-99.99,,,0.00,.985,rob ver 1A,2013-01-11 00:58:00,
2013-01-10 18:03:00,55.4,23.7,29.32,WSW,238,23.2,30.1,28,-99.99,,,0.00,.328,rob ver 1A,2013-01-11 01:03:00,
2013-01-10 18:08:00,55.3,23.6,29.32,SW,235,22.2,30.6,28,-99.99,,,0.00,.328,rob ver 1A,2013-01-11 01:08:00,
2013-01-10 18:13:00,55.1,23.0,29.35,WSW,238,22.8,28.6,28,-99.99,,,0.00,0,rob ver 1A,2013-01-11 01:13:00,
2013-01-10 18:18:00,55.0,22.2,29.32,WSW,245,22.1,30.6,27,-99.99,,,0.00,0,rob ver 1A,2013-01-11 01:18:00,
2013-01-10 18:23:00,54.8,22.0,29.32,WSW,239,26.5,33.9,27,-99.99,,,0.00,0,rob ver 1B,2013-01-11 01:23:00,
2013-01-10 18:29:00,54.7,22.3,29.35,WSW,247,24.7,31.0,28,-99.99,,,0.00,0,rob ver 1B,2013-01-11 01:29:00,
2013-01-10 18:34:00,54.5,22.6,29.35,WSW,243,21.4,27.0,28,-99.99,,,0.00,0,rob ver 1A,2013-01-11 01:34:00,
2013-01-10 18:39:00,54.4,22.9,29.35,WSW,248,19.9,26.6,29,-99.99,,,0.00,0,rob ver 1A,2013-01-11 01:39:00,
2013-01-10 18:44:00,54.2,22.9,29.35,WSW,238,20.3,26.3,29,-99.99,,,0.00,0,rob ver 1A,2013-01-11 01:44:00,
2013-01-10 18:50:00,54.1,22.9,29.35,WSW,242,20.5,25.1,29,-99.99,,,0.00,0,rob ver 1A,2013-01-11 01:50:00,
2013-01-10 18:55:00,54.0,23.0,29.35,WSW,242,19.9,25.3,29,-99.99,,,0.00,0,rob ver 1A,2013-01-11 01:55:00,
2013-01-10 19:00:00,53.9,23.1,29.35,WSW,239,21.5,25.9,29,-99.99,,,0.00,0,rob ver 1A,2013-01-11 02:00:00,
2013-01-10 19:05:00,53.8,23.2,29.32,SW,230,25.0,31.3,30,-99.99,,,0.00,0,rob ver 1A,2013-01-11 02:05:00,
2013-01-10 19:10:00,53.6,23.1,29.35,WSW,237,24.7,32.3,30,-99.99,,,0.00,0,rob ver 1A,2013-01-11 02:10:00,
2013-01-10 19:15:00,53.5,23.4,29.35,SW,235,21.3,26.2,30,-99.99,,,0.00,0,rob ver 1A,2013-01-11 02:15:00,
2013-01-10 19:20:00,53.3,23.4,29.35,WSW,244,22.2,28.5,30,-99.99,,,0.00,0,rob ver 1B,2013-01-11 02:20:00,
2013-01-10 19:25:00,53.2,23.3,29.35,SW,234,17.7,22.0,31,-99.99,,,0.00,0,rob ver 1A,2013-01-11 02:25:00,
2013-01-10 19:30:00,52.8,23.4,29.35,WSW,239,22.9,30.1,31,-99.99,,,0.00,0,rob ver 1A,2013-01-11 02:30:00,
2013-01-10 19:35:00,52.7,23.4,29.35,SW,235,17.7,24.1,31,-99.99,,,0.00,0,rob ver 1A,2013-01-11 02:35:00,
2013-01-10 19:40:00,52.6,22.9,29.35,WSW,240,21.6,28.4,31,-99.99,,,0.00,0,rob ver 1A,2013-01-11 02:40:00,
2013-01-10 19:46:00,52.5,22.6,29.35,SW,235,18.2,22.8,30,-99.99,,,0.00,0,rob ver 1A,2013-01-11 02:46:00,
2013-01-10 19:51:00,52.4,22.7,29.35,WSW,240,21.5,27.8,31,-99.99,,,0.00,0,rob ver 1A,2013-01-11 02:51:00,
2013-01-10 19:56:00,52.2,22.7,29.35,WSW,241,22.8,28.9,31,-99.99,,,0.00,0,rob ver 1B,2013-01-11 02:56:00,
2013-01-10 20:01:00,52.2,22.7,29.35,WSW,244,24.0,32.0,31,-99.99,,,0.00,0,rob ver 1A,2013-01-11 03:01:00,
2013-01-10 20:06:00,51.9,22.8,29.38,WSW,242,19.1,22.8,31,-99.99,,,0.00,0,rob ver 1A,2013-01-11 03:06:00,
2013-01-10 20:11:00,51.7,22.9,29.38,WSW,242,20.5,24.0,32,-99.99,,,0.00,0,rob ver 1A,2013-01-11 03:11:00,
2013-01-10 20:16:00,51.6,23.0,29.35,WSW,237,24.2,29.5,32,-99.99,,,0.00,0,rob ver 1A,2013-01-11 03:16:00,
2013-01-10 20:21:00,51.5,23.0,29.38,WSW,237,19.8,23.6,32,-99.99,,,0.00,0,rob ver 1A,2013-01-11 03:21:00,
2013-01-10 20:26:00,51.2,23.1,29.38,SW,235,18.7,24.4,32,-99.99,,,0.00,0,rob ver 1A,2013-01-11 03:26:00,
2013-01-10 20:31:00,51.2,23.1,29.38,SW,236,16.5,20.5,32,-99.99,,,0.00,0,rob ver 1A,2013-01-11 03:31:00,
2013-01-10 20:36:00,51.2,23.2,29.38,SW,232,18.4,24.5,33,-99.99,,,0.00,0,rob ver 1A,2013-01-11 03:36:00,
2013-01-10 20:41:00,51.0,23.2,29.38,SW,235,19.1,23.6,33,-99.99,,,0.00,0,rob ver 1A,2013-01-11 03:41:00,
2013-01-10 20:47:00,50.9,23.3,29.38,SW,234,17.9,21.8,33,-99.99,,,0.00,0,rob ver 1A,2013-01-11 03:47:00,
2013-01-10 20:52:00,50.6,23.5,29.38,SW,232,17.0,24.8,34,-99.99,,,0.00,0,rob ver 1A,2013-01-11 03:52:00,
2013-01-10 20:57:00,50.6,23.6,29.38,SW,234,15.6,20.4,34,-99.99,,,0.00,0,rob ver 1A,2013-01-11 03:57:00,
2013-01-10 21:02:00,50.3,23.8,29.38,SW,230,12.8,17.0,35,-99.99,,,0.00,0,rob ver 1A,2013-01-11 04:02:00,
2013-01-10 21:07:00,50.1,24.4,29.38,SW,221,16.0,21.4,36,-99.99,,,0.00,0,rob ver 1A,2013-01-11 04:07:00,
2013-01-10 21:12:00,50.2,25.0,29.38,SW,223,16.0,21.7,37,-99.99,,,0.00,0,rob ver 1A,2013-01-11 04:12:00,
2013-01-10 21:17:00,50.1,25.4,29.38,SW,233,19.1,23.3,37,-99.99,,,0.00,0,rob ver 1A,2013-01-11 04:17:00,
2013-01-10 21:22:00,50.1,25.5,29.38,SW,236,17.5,21.1,38,-99.99,,,0.00,0,rob ver 1A,2013-01-11 04:22:00,
2013-01-10 21:27:00,50.0,25.8,29.38,SW,230,19.1,24.0,38,-99.99,,,0.00,0,rob ver 1A,2013-01-11 04:27:00,
2013-01-10 21:32:00,49.8,25.9,29.41,SW,234,15.7,18.8,39,-99.99,,,0.00,0,rob ver 1A,2013-01-11 04:32:00,
2013-01-10 21:37:00,49.6,26.0,29.41,SW,233,15.7,20.2,39,-99.99,,,0.00,0,rob ver 1A,2013-01-11 04:37:00,
2013-01-10 21:42:00,49.6,26.1,29.41,SW,236,15.0,19.4,39,-99.99,,,0.00,0,rob ver 1A,2013-01-11 04:42:00,
2013-01-10 21:47:00,49.4,26.2,29.41,WSW,241,14.2,19.2,40,-99.99,,,0.00,0,rob ver 1B,2013-01-11 04:47:00,
2013-01-10 21:52:00,49.0,26.4,29.41,WSW,246,14.7,17.9,41,-99.99,,,0.00,0,rob ver 1A,2013-01-11 04:52:00,
2013-01-10 21:57:00,49.0,26.7,29.41,WSW,250,14.3,18.5,41,-99.99,,,0.00,0,rob ver 1A,2013-01-11 04:57:00,
2013-01-10 22:01:00,49.1,26.8,29.41,WSW,244,15.2,18.4,41,-99.99,,,0.00,0,rob ver 1A,2013-01-11 05:01:00,
2013-01-10 22:02:00,49.1,26.8,29.41,WSW,244,15.2,18.4,41,-99.99,,,0.00,0,rob ver 1A,2013-01-11 05:02:00,
2013-01-10 22:05:00,48.7,26.7,29.41,WSW,240,12.9,15.4,41,-99.99,,,0.00,0,rob ver 1A,2013-01-11 05:05:00,
2013-01-10 22:10:00,48.8,26.7,29.41,SW,235,14.2,19.7,42,-99.99,,,0.00,0,rob ver 1A,2013-01-11 05:10:00,
2013-01-10 22:15:00,49.0,27.1,29.41,SW,234,16.4,20.5,42,-99.99,,,0.00,0,rob ver 1A,2013-01-11 05:15:00,
2013-01-10 22:20:00,48.8,27.2,29.41,SW,233,13.9,16.8,42,-99.99,,,0.00,0,rob ver 1A,2013-01-11 05:20:00,
2013-01-10 22:25:00,49.2,27.1,29.41,WSW,238,16.5,21.0,41,-99.99,,,0.00,0,rob ver 1A,2013-01-11 05:25:00,
2013-01-10 22:30:00,48.8,27.1,29.44,WSW,240,12.9,17.9,42,-99.99,,,0.00,0,rob ver 1A,2013-01-11 05:30:00,
2013-01-10 22:35:00,48.3,27.1,29.44,WSW,245,10.5,13.0,43,-99.99,,,0.00,0,rob ver 1A,2013-01-11 05:35:00,
2013-01-10 22:40:00,48.4,27.1,29.44,WSW,244,11.3,13.8,43,-99.99,,,0.00,0,rob ver 1A,2013-01-11 05:40:00,
2013-01-10 22:45:00,48.3,26.9,29.44,SW,235,8.6,11.4,43,-99.99,,,0.00,0,rob ver 1A,2013-01-11 05:45:00,
2013-01-10 22:50:00,48.5,26.7,29.44,SW,231,8.1,9.6,42,-99.99,,,0.00,0,rob ver 1A,2013-01-11 05:50:00,
2013-01-10 22:55:00,48.9,26.2,29.44,SW,235,13.0,16.1,40,-99.99,,,0.00,0,rob ver 1A,2013-01-11 05:55:00,
2013-01-10 23:00:00,49.2,26.5,29.44,SW,234,14.4,16.5,41,-99.99,,,0.00,0,rob ver 1A,2013-01-11 06:00:00,
2013-01-10 23:06:00,49.0,26.9,29.44,SW,233,16.2,19.5,42,-99.99,,,0.00,0,rob ver 1A,2013-01-11 06:06:00,
2013-01-10 23:11:00,48.8,27.0,29.44,SW,235,13.2,17.2,42,-99.99,,,0.00,0,rob ver 1A,2013-01-11 06:11:00,
2013-01-10 23:16:00,48.6,27.1,29.44,SW,234,15.9,22.4,42,-99.99,,,0.00,0,rob ver 1A,2013-01-11 06:16:00,
2013-01-10 23:21:00,48.8,27.2,29.44,SW,230,16.6,18.8,42,-99.99,,,0.00,0,rob ver 1A,2013-01-11 06:21:00,
2013-01-10 23:26:00,48.7,27.4,29.44,SW,234,16.5,20.4,43,-99.99,,,0.00,0,rob ver 1B,2013-01-11 06:26:00,
2013-01-10 23:31:00,48.4,27.5,29.44,SW,235,14.3,17.5,43,-99.99,,,0.00,0,rob ver 1A,2013-01-11 06:31:00,
2013-01-10 23:36:00,48.4,27.7,29.44,WSW,247,18.6,26.9,44,-99.99,,,0.00,0,rob ver 1A,2013-01-11 06:36:00,
2013-01-10 23:41:00,48.5,27.9,29.44,WSW,240,17.8,21.1,44,-99.99,,,0.00,0,rob ver 1A,2013-01-11 06:41:00,
2013-01-10 23:46:00,48.1,27.9,29.44,WSW,238,14.0,16.7,45,-99.99,,,0.00,0,rob ver 1A,2013-01-11 06:46:00,
2013-01-10 23:51:00,48.3,27.8,29.44,SW,232,14.9,18.1,44,-99.99,,,0.00,0,rob ver 1A,2013-01-11 06:51:00,
2013-01-10 23:56:00,48.4,27.8,29.44,SW,234,17.2,20.8,44,-99.99,,,0.00,0,rob ver 1A,2013-01-11 06:56:00,